TUI6MB LGIR-EDDF

Flight info

Callsign TUI6MB
Flight time 3h 7m
Altitude 36000
Route EPALO UM749 DIRMI UL613 XANIS DCT DIMIS DCT PETAK DCT GLOMY DCT ELTIB DCT TUPUS DCT GORPA DCT SIMBA DCT AKINI T161 DEBHI DEBHI1B
Aircraft B38M/M-SDE1FGHILORVWXY/HB1

Departure

Time 2026-05-06 10:54
Airport Heraklion International Nikos Kazantzakis Airport (LGIR)

Arrival

Time 2026-05-06 14:01
Airport Frankfurt Main Airport (EDDF)
Time Latitude Longitude Altitude Speed Heading
2026-05-06 10:35 35.33888 25.17155 96 ft 0 kts 314°
2026-05-06 10:50 35.33893 25.17149 94 ft 2 kts 314°
2026-05-06 10:50 35.33900 25.17141 97 ft 2 kts 318°
2026-05-06 10:50 35.33934 25.17102 92 ft 13 kts 305°
2026-05-06 10:51 35.33949 25.16963 92 ft 19 kts 275°
2026-05-06 10:51 35.33962 25.16793 94 ft 20 kts 282°
2026-05-06 10:51 35.34033 25.16643 94 ft 21 kts 304°
2026-05-06 10:51 35.34082 25.16479 94 ft 21 kts 277°
2026-05-06 10:52 35.34095 25.16298 94 ft 22 kts 274°
2026-05-06 10:52 35.34077 25.16162 95 ft 8 kts 253°
2026-05-06 10:52 35.34088 25.16129 96 ft 1 kts 336°
2026-05-06 10:52 35.34104 25.16136 94 ft 3 kts 67°
2026-05-06 10:53 35.34101 25.16209 96 ft 13 kts 95°
2026-05-06 10:53 35.34093 25.16333 94 ft 16 kts 95°
2026-05-06 10:53 35.34079 25.16544 94 ft 47 kts 95°
2026-05-06 10:53 35.34027 25.17291 94 ft 126 kts 95°
2026-05-06 10:54 35.33922 25.18618 252 ft 178 kts 95°
2026-05-06 10:54 35.33750 25.20242 869 ft 209 kts 96°
2026-05-06 10:54 35.33624 25.22126 1706 ft 230 kts 85°
2026-05-06 10:54 35.34118 25.24015 2447 ft 244 kts 51°
2026-05-06 10:55 35.35458 25.25291 3128 ft 257 kts 21°
2026-05-06 10:55 35.37220 25.25498 4050 ft 255 kts 345°
2026-05-06 10:55 35.38740 25.24412 5028 ft 259 kts 315°
2026-05-06 10:55 35.39990 25.22762 5843 ft 269 kts 313°
2026-05-06 10:56 35.41247 25.21050 6808 ft 271 kts 313°
2026-05-06 10:56 35.42510 25.19315 7709 ft 274 kts 313°
2026-05-06 10:56 35.43773 25.17568 8677 ft 274 kts 313°
2026-05-06 10:56 35.45038 25.15810 9609 ft 276 kts 313°
2026-05-06 10:57 35.46312 25.14036 10476 ft 280 kts 313°
2026-05-06 10:57 35.47618 25.12157 10892 ft 299 kts 306°
2026-05-06 10:57 35.48510 25.09773 11339 ft 315 kts 294°
2026-05-06 10:57 35.49691 25.07508 11826 ft 323 kts 316°
2026-05-06 10:58 35.51537 25.05916 12586 ft 326 kts 334°
2026-05-06 10:58 35.53696 25.05014 13316 ft 330 kts 342°
2026-05-06 10:58 35.55886 25.04113 14032 ft 333 kts 340°
2026-05-06 10:58 35.58072 25.03229 14671 ft 336 kts 341°
2026-05-06 10:59 35.60315 25.02345 15306 ft 339 kts 341°
2026-05-06 10:59 35.62580 25.01466 15935 ft 343 kts 341°
2026-05-06 10:59 35.64871 25.00584 16528 ft 346 kts 341°
2026-05-06 10:59 35.67178 24.99700 17123 ft 349 kts 341°
2026-05-06 11:00 35.69506 24.98811 17731 ft 352 kts 341°
2026-05-06 11:00 35.71857 24.97913 18327 ft 355 kts 340°
2026-05-06 11:00 35.74226 24.97007 18836 ft 357 kts 340°
2026-05-06 11:00 35.76608 24.96097 19332 ft 360 kts 340°
2026-05-06 11:01 35.79010 24.95179 19831 ft 362 kts 340°
2026-05-06 11:01 35.81399 24.94264 20304 ft 365 kts 340°
2026-05-06 11:01 35.83838 24.93330 20796 ft 367 kts 340°
2026-05-06 11:01 35.86289 24.92392 21281 ft 370 kts 340°
2026-05-06 11:02 35.88756 24.91446 21766 ft 372 kts 340°
2026-05-06 11:02 35.91242 24.90493 22247 ft 375 kts 340°
2026-05-06 11:02 35.93743 24.89533 22723 ft 378 kts 340°
2026-05-06 11:02 35.96259 24.88567 23206 ft 380 kts 340°
2026-05-06 11:03 35.98797 24.87592 23711 ft 382 kts 340°
2026-05-06 11:03 36.01345 24.86613 24126 ft 384 kts 340°
2026-05-06 11:03 36.03906 24.85623 24512 ft 387 kts 339°
2026-05-06 11:03 36.06294 24.84127 24894 ft 385 kts 322°
2026-05-06 11:04 36.08414 24.82087 25260 ft 388 kts 321°
2026-05-06 11:04 36.10556 24.80024 25620 ft 391 kts 321°
2026-05-06 11:04 36.12669 24.77963 26003 ft 393 kts 321°
2026-05-06 11:04 36.14814 24.75849 26368 ft 395 kts 320°
2026-05-06 11:05 36.16967 24.73716 26734 ft 398 kts 320°
2026-05-06 11:05 36.19131 24.71569 27095 ft 400 kts 320°
2026-05-06 11:05 36.21317 24.69397 27456 ft 402 kts 320°
2026-05-06 11:05 36.23503 24.67223 27799 ft 405 kts 320°
2026-05-06 11:06 36.25708 24.65028 28159 ft 407 kts 320°
2026-05-06 11:06 36.27916 24.62828 28516 ft 409 kts 320°
2026-05-06 11:06 36.30145 24.60607 28849 ft 411 kts 320°
2026-05-06 11:06 36.32380 24.58377 29181 ft 413 kts 320°
2026-05-06 11:07 36.34629 24.56132 29501 ft 416 kts 320°
2026-05-06 11:07 36.36891 24.53871 29819 ft 418 kts 320°
2026-05-06 11:07 36.39163 24.51600 30133 ft 420 kts 320°
2026-05-06 11:07 36.41412 24.49348 30396 ft 422 kts 320°
2026-05-06 11:08 36.43707 24.47051 30669 ft 424 kts 320°
2026-05-06 11:08 36.46008 24.44744 30939 ft 425 kts 320°
2026-05-06 11:08 36.48315 24.42430 31209 ft 427 kts 320°
2026-05-06 11:08 36.50628 24.40108 31473 ft 429 kts 320°
2026-05-06 11:09 36.52952 24.37773 31782 ft 429 kts 320°
2026-05-06 11:09 36.55275 24.35438 32138 ft 428 kts 320°
2026-05-06 11:09 36.57589 24.33109 32505 ft 427 kts 320°
2026-05-06 11:09 36.59902 24.30779 32859 ft 426 kts 320°
2026-05-06 11:10 36.62184 24.28480 33209 ft 426 kts 320°
2026-05-06 11:10 36.64485 24.26158 33560 ft 425 kts 320°
2026-05-06 11:10 36.66788 24.23833 33897 ft 424 kts 320°
2026-05-06 11:10 36.69081 24.21517 34219 ft 423 kts 320°
2026-05-06 11:11 36.71368 24.19205 34503 ft 422 kts 319°
2026-05-06 11:11 36.73645 24.16901 34794 ft 421 kts 319°
2026-05-06 11:11 36.75887 24.14631 35079 ft 420 kts 319°
2026-05-06 11:11 36.78161 24.12325 35366 ft 419 kts 319°
2026-05-06 11:12 36.80423 24.10031 35644 ft 418 kts 319°
2026-05-06 11:12 36.82679 24.07742 35910 ft 417 kts 319°
2026-05-06 11:12 36.84933 24.05451 36110 ft 417 kts 319°
2026-05-06 11:13 36.89436 24.00873 36102 ft 415 kts 319°
2026-05-06 11:13 36.93894 23.96336 36102 ft 416 kts 319°
2026-05-06 11:14 36.98386 23.91759 36105 ft 416 kts 319°
2026-05-06 11:14 37.02872 23.87181 36102 ft 416 kts 319°
2026-05-06 11:15 37.07356 23.82597 36100 ft 416 kts 319°
2026-05-06 11:15 37.11812 23.78036 36113 ft 415 kts 319°
2026-05-06 11:16 37.16274 23.73459 36089 ft 414 kts 319°
2026-05-06 11:16 37.20754 23.68858 36098 ft 416 kts 319°
2026-05-06 11:17 37.25229 23.64255 36097 ft 416 kts 319°
2026-05-06 11:17 37.29705 23.59644 36097 ft 416 kts 319°
2026-05-06 11:18 37.34176 23.55030 36095 ft 416 kts 319°
2026-05-06 11:18 37.38648 23.50408 36097 ft 416 kts 319°
2026-05-06 11:19 37.43076 23.45825 36095 ft 414 kts 319°
2026-05-06 11:19 37.47531 23.41204 36084 ft 415 kts 319°
2026-05-06 11:20 37.51995 23.36569 36088 ft 416 kts 319°
2026-05-06 11:20 37.56460 23.31925 36083 ft 416 kts 319°
2026-05-06 11:21 37.60930 23.27268 36083 ft 416 kts 319°
2026-05-06 11:21 37.65391 23.22612 36083 ft 416 kts 319°
2026-05-06 11:22 37.69849 23.17953 36084 ft 415 kts 319°
2026-05-06 11:22 37.73541 23.14089 36085 ft 415 kts 319°
2026-05-06 11:23 37.78706 23.08673 36065 ft 416 kts 318°
2026-05-06 11:23 37.83174 23.03980 36093 ft 418 kts 318°
2026-05-06 11:24 37.86889 23.00075 36073 ft 417 kts 318°
2026-05-06 11:24 37.91350 22.95376 36083 ft 417 kts 318°
2026-05-06 11:25 37.95668 22.90463 36102 ft 417 kts 316°
2026-05-06 11:25 37.99945 22.85508 36088 ft 416 kts 316°
2026-05-06 11:26 38.04204 22.80580 36084 ft 416 kts 316°
2026-05-06 11:26 38.08465 22.75643 36073 ft 418 kts 316°
2026-05-06 11:27 38.12766 22.70651 36078 ft 419 kts 316°
2026-05-06 11:27 38.17064 22.65657 36082 ft 419 kts 316°
2026-05-06 11:28 38.21369 22.60646 36080 ft 419 kts 316°
2026-05-06 11:28 38.25663 22.55640 36086 ft 418 kts 316°
2026-05-06 11:29 38.29938 22.50647 36080 ft 417 kts 316°
2026-05-06 11:29 38.34192 22.45670 36076 ft 417 kts 316°
2026-05-06 11:30 38.38485 22.40640 36086 ft 420 kts 315°
2026-05-06 11:30 38.42786 22.35592 36083 ft 419 kts 315°
2026-05-06 11:31 38.47071 22.30554 36091 ft 418 kts 315°
2026-05-06 11:31 38.51323 22.25546 36086 ft 419 kts 315°
2026-05-06 11:32 38.55601 22.20499 36083 ft 418 kts 315°
2026-05-06 11:32 38.60104 22.15740 36072 ft 420 kts 319°
2026-05-06 11:33 38.64679 22.11043 36087 ft 422 kts 319°
2026-05-06 11:33 38.69247 22.06316 36111 ft 422 kts 319°
2026-05-06 11:34 38.73815 22.01578 36081 ft 422 kts 319°
2026-05-06 11:34 38.78348 21.96867 36098 ft 422 kts 319°
2026-05-06 11:35 38.82910 21.92119 36097 ft 421 kts 319°
2026-05-06 11:35 38.87455 21.87380 36097 ft 421 kts 319°
2026-05-06 11:36 38.92007 21.82626 36081 ft 421 kts 319°
2026-05-06 11:36 38.96555 21.77867 36125 ft 423 kts 318°
2026-05-06 11:37 39.01119 21.73084 36094 ft 423 kts 318°
2026-05-06 11:37 39.05687 21.68289 36107 ft 423 kts 318°
2026-05-06 11:38 39.10226 21.63516 36111 ft 423 kts 318°
2026-05-06 11:38 39.14797 21.58700 36099 ft 423 kts 318°
2026-05-06 11:39 39.19363 21.53884 36082 ft 423 kts 318°
2026-05-06 11:39 39.23891 21.49096 36091 ft 423 kts 318°
2026-05-06 11:40 39.28434 21.44285 36101 ft 423 kts 318°
2026-05-06 11:40 39.32983 21.39460 36094 ft 422 kts 318°
2026-05-06 11:41 39.37521 21.34639 36089 ft 422 kts 318°
2026-05-06 11:41 39.42064 21.29803 36101 ft 422 kts 318°
2026-05-06 11:42 39.46570 21.24998 36089 ft 422 kts 318°
2026-05-06 11:42 39.51109 21.20150 36101 ft 423 kts 318°
2026-05-06 11:43 39.55641 21.15300 36089 ft 422 kts 318°
2026-05-06 11:43 39.60152 21.10466 36116 ft 424 kts 318°
2026-05-06 11:44 39.66959 21.03153 36120 ft 424 kts 318°
2026-05-06 11:44 39.71502 20.98262 36124 ft 424 kts 318°
2026-05-06 11:45 39.76043 20.93365 36139 ft 424 kts 318°
2026-05-06 11:45 39.80558 20.88487 36124 ft 424 kts 317°
2026-05-06 11:46 39.85097 20.83574 36123 ft 424 kts 317°
2026-05-06 11:46 39.89639 20.78649 36114 ft 424 kts 317°
2026-05-06 11:47 39.94190 20.73707 36120 ft 425 kts 317°
2026-05-06 11:47 39.98706 20.68794 36070 ft 425 kts 317°
2026-05-06 11:48 40.03247 20.63847 36096 ft 425 kts 317°
2026-05-06 11:48 40.07864 20.59026 36076 ft 428 kts 326°
2026-05-06 11:49 40.13087 20.55216 36077 ft 429 kts 327°
2026-05-06 11:49 40.18286 20.51400 36112 ft 429 kts 327°
2026-05-06 11:50 40.23494 20.47579 36080 ft 428 kts 327°
2026-05-06 11:50 40.28707 20.43748 36081 ft 431 kts 327°
2026-05-06 11:51 40.33903 20.39922 36087 ft 431 kts 327°
2026-05-06 11:51 40.39126 20.36070 36085 ft 431 kts 327°
2026-05-06 11:52 40.44352 20.32210 36079 ft 431 kts 327°
2026-05-06 11:52 40.49584 20.28338 36076 ft 431 kts 327°
2026-05-06 11:53 40.54806 20.24465 36071 ft 431 kts 327°
2026-05-06 11:53 40.60026 20.20588 36095 ft 431 kts 327°
2026-05-06 11:54 40.65244 20.16704 36074 ft 431 kts 327°
2026-05-06 11:54 40.70444 20.12827 36103 ft 433 kts 327°
2026-05-06 11:55 40.75687 20.08911 36078 ft 433 kts 327°
2026-05-06 11:55 40.80941 20.04980 36081 ft 433 kts 327°
2026-05-06 11:56 40.86178 20.01055 36093 ft 433 kts 327°
2026-05-06 11:56 40.91387 19.97142 36084 ft 433 kts 327°
2026-05-06 11:57 40.96624 19.93202 36084 ft 433 kts 327°
2026-05-06 11:57 41.01864 19.89252 36084 ft 433 kts 327°
2026-05-06 11:58 41.07094 19.85302 36084 ft 433 kts 327°
2026-05-06 11:58 41.12296 19.81367 36093 ft 433 kts 327°
2026-05-06 11:59 41.17537 19.77394 36097 ft 434 kts 327°
2026-05-06 11:59 41.22795 19.73401 36103 ft 435 kts 327°
2026-05-06 12:00 41.28046 19.69407 36101 ft 435 kts 327°
2026-05-06 12:00 41.33305 19.65399 36101 ft 435 kts 327°
2026-05-06 12:01 41.38523 19.61413 36092 ft 435 kts 327°
2026-05-06 12:01 41.43766 19.57402 36092 ft 435 kts 327°
2026-05-06 12:02 41.49015 19.53378 36093 ft 435 kts 327°
2026-05-06 12:02 41.54263 19.49348 36093 ft 435 kts 327°
2026-05-06 12:03 41.59499 19.45319 36081 ft 434 kts 326°
2026-05-06 12:03 41.64716 19.41299 36097 ft 436 kts 326°
2026-05-06 12:04 41.69973 19.37241 36097 ft 435 kts 326°
2026-05-06 12:04 41.75226 19.33177 36098 ft 436 kts 326°
2026-05-06 12:05 41.80280 19.28814 36110 ft 434 kts 322°
2026-05-06 12:05 41.85296 19.24292 36100 ft 433 kts 323°
2026-05-06 12:06 41.90321 19.19788 36101 ft 434 kts 323°
2026-05-06 12:06 41.95343 19.15283 36103 ft 434 kts 323°
2026-05-06 12:07 42.00369 19.10765 36096 ft 434 kts 322°
2026-05-06 12:07 42.05359 19.06271 36099 ft 435 kts 322°
2026-05-06 12:08 42.10386 19.01736 36101 ft 435 kts 322°
2026-05-06 12:08 42.15415 18.97189 36099 ft 435 kts 322°
2026-05-06 12:09 42.20435 18.92641 36090 ft 435 kts 322°
2026-05-06 12:09 42.25463 18.88078 36086 ft 435 kts 322°
2026-05-06 12:10 42.30453 18.83540 36094 ft 435 kts 322°
2026-05-06 12:10 42.35469 18.78970 36097 ft 434 kts 322°
2026-05-06 12:11 42.40486 18.74389 36103 ft 436 kts 322°
2026-05-06 12:11 42.44667 18.70565 36104 ft 436 kts 322°
2026-05-06 12:12 42.49700 18.65954 36105 ft 436 kts 322°
2026-05-06 12:12 42.54729 18.61337 36097 ft 436 kts 322°
2026-05-06 12:13 42.59722 18.56744 36092 ft 436 kts 322°
2026-05-06 12:13 42.64737 18.52122 36095 ft 436 kts 322°
2026-05-06 12:14 42.69754 18.47488 36089 ft 436 kts 322°
2026-05-06 12:14 42.74772 18.42846 36104 ft 436 kts 322°
2026-05-06 12:15 42.79798 18.38184 36089 ft 437 kts 322°
2026-05-06 12:15 42.84826 18.33514 36084 ft 438 kts 322°
2026-05-06 12:16 42.89824 18.28860 36079 ft 437 kts 322°
2026-05-06 12:16 42.94853 18.24170 36083 ft 437 kts 322°
2026-05-06 12:17 42.99875 18.19476 36073 ft 437 kts 322°
2026-05-06 12:17 43.04895 18.14775 36073 ft 437 kts 322°
2026-05-06 12:18 43.09918 18.10061 36054 ft 437 kts 322°
2026-05-06 12:18 43.14901 18.05374 36063 ft 437 kts 322°
2026-05-06 12:19 43.19918 18.00648 36038 ft 437 kts 322°
2026-05-06 12:19 43.24937 17.95908 36043 ft 437 kts 322°
2026-05-06 12:20 43.29954 17.91162 36047 ft 437 kts 322°
2026-05-06 12:20 43.34925 17.86449 36049 ft 437 kts 322°
2026-05-06 12:21 43.39937 17.81688 36054 ft 437 kts 322°
2026-05-06 12:21 43.44942 17.76926 36049 ft 437 kts 322°
2026-05-06 12:22 43.49911 17.72189 36041 ft 438 kts 322°
2026-05-06 12:22 43.54930 17.67394 36066 ft 439 kts 321°
2026-05-06 12:23 43.59648 17.62109 36069 ft 437 kts 317°
2026-05-06 12:23 43.64355 17.56797 36042 ft 437 kts 317°
2026-05-06 12:24 43.69085 17.51482 36038 ft 437 kts 317°
2026-05-06 12:24 43.73778 17.46200 36031 ft 438 kts 317°
2026-05-06 12:25 43.78508 17.40866 36039 ft 439 kts 317°
2026-05-06 12:25 43.83246 17.35512 36019 ft 439 kts 317°
2026-05-06 12:26 43.87979 17.30152 36024 ft 439 kts 317°
2026-05-06 12:26 43.92711 17.24782 36010 ft 439 kts 317°
2026-05-06 12:27 43.97411 17.19436 36030 ft 439 kts 316°
2026-05-06 12:27 44.02146 17.14040 36004 ft 440 kts 316°
2026-05-06 12:28 44.04520 17.11330 36126 ft 441 kts 316°
2026-05-06 12:28 44.06862 17.08654 36398 ft 440 kts 316°
2026-05-06 12:28 44.09226 17.05950 36632 ft 440 kts 316°
2026-05-06 12:28 44.11587 17.03247 36889 ft 439 kts 316°
2026-05-06 12:29 44.13944 17.00545 37237 ft 436 kts 315°
2026-05-06 12:29 44.16278 16.97865 37562 ft 433 kts 315°
2026-05-06 12:29 44.18598 16.95201 37852 ft 432 kts 316°
2026-05-06 12:29 44.20921 16.92529 37971 ft 433 kts 315°
2026-05-06 12:30 44.25586 16.87156 37971 ft 435 kts 315°
2026-05-06 12:30 44.30272 16.81810 37964 ft 437 kts 320°
2026-05-06 12:31 44.35236 16.76986 37997 ft 438 kts 320°
2026-05-06 12:31 44.40202 16.72063 37956 ft 437 kts 320°
2026-05-06 12:32 44.45159 16.67117 37945 ft 438 kts 319°
2026-05-06 12:32 44.50133 16.62143 37946 ft 439 kts 319°
2026-05-06 12:33 44.55113 16.57152 37944 ft 439 kts 319°
2026-05-06 12:33 44.60055 16.52188 37933 ft 439 kts 319°
2026-05-06 12:34 44.65013 16.47198 37926 ft 438 kts 319°
2026-05-06 12:34 44.69973 16.42194 37938 ft 438 kts 319°
2026-05-06 12:35 44.74914 16.37200 37936 ft 438 kts 319°
2026-05-06 12:35 44.79870 16.32179 37932 ft 439 kts 319°
2026-05-06 12:36 44.84811 16.27163 37932 ft 437 kts 319°
2026-05-06 12:36 44.89728 16.22161 37929 ft 438 kts 319°
2026-05-06 12:37 44.94670 16.17121 37930 ft 439 kts 318°
2026-05-06 12:37 44.99617 16.12066 37925 ft 439 kts 318°
2026-05-06 12:38 45.04569 16.06995 37924 ft 439 kts 318°
2026-05-06 12:38 45.09517 16.01916 37931 ft 439 kts 318°
2026-05-06 12:39 45.14459 15.96834 37928 ft 439 kts 318°
2026-05-06 12:39 45.19381 15.91762 37939 ft 440 kts 318°
2026-05-06 12:40 45.24428 15.86796 37938 ft 442 kts 320°
2026-05-06 12:40 45.29520 15.81904 37920 ft 441 kts 320°
2026-05-06 12:41 45.34603 15.76997 37923 ft 441 kts 320°
2026-05-06 12:41 45.39677 15.72086 37935 ft 441 kts 320°
2026-05-06 12:42 45.44734 15.67180 37942 ft 442 kts 320°
2026-05-06 12:42 45.49812 15.62243 37936 ft 442 kts 320°
2026-05-06 12:43 45.54882 15.57304 37928 ft 441 kts 320°
2026-05-06 12:43 45.59945 15.52360 37932 ft 441 kts 320°
2026-05-06 12:44 45.65007 15.47407 37943 ft 441 kts 320°
2026-05-06 12:44 45.70043 15.42467 37923 ft 440 kts 320°
2026-05-06 12:45 45.75102 15.37494 37935 ft 441 kts 320°
2026-05-06 12:46 45.82885 15.30406 37962 ft 443 kts 322°
2026-05-06 12:46 45.88096 15.25700 37947 ft 442 kts 322°
2026-05-06 12:47 45.93274 15.21010 37909 ft 442 kts 322°
2026-05-06 12:47 45.98473 15.16290 37939 ft 443 kts 322°
2026-05-06 12:48 46.03684 15.11548 37943 ft 443 kts 322°
2026-05-06 12:48 46.08905 15.06787 37949 ft 443 kts 322°
2026-05-06 12:49 46.14112 15.02027 37936 ft 443 kts 322°
2026-05-06 12:49 46.19292 14.97281 37936 ft 443 kts 322°
2026-05-06 12:50 46.24477 14.92520 37956 ft 441 kts 322°
2026-05-06 12:50 46.29655 14.87754 37927 ft 441 kts 322°
2026-05-06 12:51 46.34832 14.82980 37937 ft 441 kts 322°
2026-05-06 12:51 46.40018 14.78186 37898 ft 441 kts 322°
2026-05-06 12:52 46.45174 14.73406 37938 ft 440 kts 322°
2026-05-06 12:52 46.50317 14.68631 37914 ft 441 kts 322°
2026-05-06 12:53 46.55488 14.63817 37907 ft 442 kts 322°
2026-05-06 12:53 46.60683 14.58970 37891 ft 444 kts 322°
2026-05-06 12:54 46.65881 14.54109 37890 ft 444 kts 322°
2026-05-06 12:54 46.71036 14.49277 37872 ft 443 kts 321°
2026-05-06 12:55 46.76204 14.44421 37916 ft 443 kts 321°
2026-05-06 12:55 46.81387 14.39541 37882 ft 442 kts 321°
2026-05-06 12:56 46.86569 14.34650 37879 ft 443 kts 322°
2026-05-06 12:56 46.91759 14.29740 37928 ft 443 kts 321°
2026-05-06 12:57 46.96923 14.24843 37854 ft 441 kts 321°
2026-05-06 12:57 47.02042 14.19977 37895 ft 442 kts 321°
2026-05-06 12:58 47.07196 14.15067 37869 ft 441 kts 321°
2026-05-06 12:58 47.12349 14.10145 37890 ft 442 kts 321°
2026-05-06 12:59 47.17516 14.05198 37875 ft 445 kts 320°
2026-05-06 12:59 47.21837 14.01055 37872 ft 446 kts 320°
2026-05-06 13:00 47.27875 13.95248 37836 ft 445 kts 320°
2026-05-06 13:00 47.32224 13.91057 37816 ft 445 kts 320°
2026-05-06 13:01 47.37409 13.86048 37829 ft 446 kts 320°
2026-05-06 13:01 47.42581 13.81040 37813 ft 450 kts 320°
2026-05-06 13:02 47.47830 13.75946 37788 ft 452 kts 320°
2026-05-06 13:02 47.53082 13.70835 37787 ft 452 kts 320°
2026-05-06 13:03 47.58319 13.65728 37838 ft 450 kts 320°
2026-05-06 13:03 47.60930 13.63175 37684 ft 449 kts 320°
2026-05-06 13:03 47.63527 13.60633 37850 ft 446 kts 320°
2026-05-06 13:04 47.68747 13.55519 37751 ft 452 kts 320°
2026-05-06 13:04 47.74002 13.50357 37778 ft 458 kts 320°
2026-05-06 13:05 47.79324 13.45115 37756 ft 458 kts 320°
2026-05-06 13:05 47.84643 13.39863 37750 ft 459 kts 320°
2026-05-06 13:06 47.89955 13.34605 37750 ft 458 kts 320°
2026-05-06 13:06 47.95281 13.29319 37752 ft 459 kts 320°
2026-05-06 13:07 48.00557 13.24073 37768 ft 459 kts 320°
2026-05-06 13:07 48.05877 13.18770 37752 ft 459 kts 320°
2026-05-06 13:08 48.11193 13.13457 37754 ft 459 kts 320°
2026-05-06 13:08 48.16474 13.08168 37762 ft 459 kts 320°
2026-05-06 13:09 48.21789 13.02817 37759 ft 458 kts 319°
2026-05-06 13:09 48.26770 12.97024 37751 ft 451 kts 310°
2026-05-06 13:10 48.30591 12.89859 37753 ft 430 kts 292°
2026-05-06 13:10 48.32174 12.85999 37700 ft 441 kts 304°
2026-05-06 13:10 48.34258 12.82600 37811 ft 441 kts 306°
2026-05-06 13:10 48.36293 12.79113 37689 ft 444 kts 305°
2026-05-06 13:11 48.38331 12.75625 37752 ft 443 kts 306°
2026-05-06 13:11 48.42417 12.68644 37760 ft 444 kts 306°
2026-05-06 13:12 48.46505 12.61648 37771 ft 444 kts 306°
2026-05-06 13:12 48.50581 12.54655 37766 ft 444 kts 306°
2026-05-06 13:13 48.54629 12.47693 37764 ft 444 kts 306°
2026-05-06 13:13 48.58703 12.40664 37763 ft 444 kts 306°
2026-05-06 13:14 48.62768 12.33635 37762 ft 444 kts 306°
2026-05-06 13:14 48.66812 12.26622 37765 ft 445 kts 305°
2026-05-06 13:15 48.70899 12.19518 37758 ft 449 kts 306°
2026-05-06 13:15 48.74490 12.11955 37748 ft 433 kts 285°
2026-05-06 13:16 48.75860 12.03196 37741 ft 428 kts 276°
2026-05-06 13:16 48.76907 11.94365 37772 ft 427 kts 275°
2026-05-06 13:17 48.77881 11.85471 37794 ft 427 kts 274°
2026-05-06 13:17 48.78831 11.76562 37773 ft 428 kts 274°
2026-05-06 13:18 48.79767 11.67695 37774 ft 428 kts 274°
2026-05-06 13:18 48.80699 11.58777 37770 ft 428 kts 274°
2026-05-06 13:19 48.81625 11.49838 37653 ft 427 kts 274°
2026-05-06 13:19 48.82082 11.45380 36812 ft 430 kts 274°
2026-05-06 13:19 48.82538 11.40940 36162 ft 430 kts 274°
2026-05-06 13:19 48.82994 11.36484 35661 ft 425 kts 273°
2026-05-06 13:20 48.83441 11.32083 35262 ft 419 kts 273°
2026-05-06 13:20 48.83884 11.27734 34789 ft 415 kts 274°
2026-05-06 13:20 48.84679 11.23494 34218 ft 424 kts 289°
2026-05-06 13:20 48.86296 11.19691 33670 ft 436 kts 304°
2026-05-06 13:21 48.88499 11.16466 33145 ft 437 kts 309°
2026-05-06 13:21 48.90709 11.13319 32667 ft 432 kts 309°
2026-05-06 13:21 48.92878 11.10258 32191 ft 429 kts 309°
2026-05-06 13:21 48.95061 11.07197 31707 ft 425 kts 310°
2026-05-06 13:22 48.97233 11.04153 31231 ft 422 kts 310°
2026-05-06 13:22 48.99393 11.01124 30710 ft 421 kts 310°
2026-05-06 13:22 49.01537 10.98117 30228 ft 418 kts 310°
2026-05-06 13:22 49.03671 10.95119 29771 ft 415 kts 310°
2026-05-06 13:23 49.05792 10.92139 29222 ft 412 kts 310°
2026-05-06 13:23 49.07890 10.89183 28761 ft 408 kts 310°
2026-05-06 13:23 49.09970 10.86247 28249 ft 406 kts 310°
2026-05-06 13:23 49.12031 10.83336 27851 ft 401 kts 310°
2026-05-06 13:24 49.14069 10.80452 27448 ft 397 kts 310°
2026-05-06 13:24 49.16086 10.77594 27025 ft 394 kts 310°
2026-05-06 13:24 49.18092 10.74749 26607 ft 392 kts 310°
2026-05-06 13:24 49.20015 10.71906 26162 ft 387 kts 307°
2026-05-06 13:25 49.21886 10.68937 25709 ft 386 kts 308°
2026-05-06 13:25 49.23748 10.66005 25335 ft 383 kts 309°
2026-05-06 13:25 49.25604 10.63093 24932 ft 381 kts 309°
2026-05-06 13:25 49.27450 10.60196 24540 ft 379 kts 310°
2026-05-06 13:26 49.29289 10.57309 24147 ft 377 kts 310°
2026-05-06 13:26 49.31116 10.54437 23765 ft 375 kts 310°
2026-05-06 13:26 49.32906 10.51620 23393 ft 373 kts 311°
2026-05-06 13:26 49.34725 10.48755 22951 ft 371 kts 311°
2026-05-06 13:27 49.36458 10.45848 22482 ft 367 kts 303°
2026-05-06 13:27 49.37995 10.42717 22094 ft 364 kts 304°
2026-05-06 13:27 49.39516 10.39693 21812 ft 359 kts 304°
2026-05-06 13:27 49.41045 10.36679 21459 ft 356 kts 304°
2026-05-06 13:28 49.42566 10.33695 21090 ft 353 kts 304°
2026-05-06 13:28 49.44078 10.30735 20742 ft 350 kts 305°
2026-05-06 13:28 49.45577 10.27799 20392 ft 347 kts 304°
2026-05-06 13:28 49.47045 10.24923 20045 ft 344 kts 304°
2026-05-06 13:29 49.48521 10.22028 19706 ft 342 kts 304°
2026-05-06 13:29 49.49985 10.19156 19358 ft 339 kts 304°
2026-05-06 13:29 49.51437 10.16301 19015 ft 337 kts 304°
2026-05-06 13:29 49.52864 10.13489 18683 ft 335 kts 304°
2026-05-06 13:30 49.54298 10.10670 18346 ft 333 kts 304°
2026-05-06 13:30 49.55716 10.07874 18063 ft 329 kts 304°
2026-05-06 13:30 49.57118 10.05109 17744 ft 325 kts 304°
2026-05-06 13:30 49.58488 10.02403 17414 ft 322 kts 304°
2026-05-06 13:31 49.59864 9.99682 17092 ft 319 kts 304°
2026-05-06 13:31 49.61220 9.96997 16763 ft 315 kts 304°
2026-05-06 13:31 49.62560 9.94342 16453 ft 312 kts 304°
2026-05-06 13:31 49.63875 9.91735 16145 ft 309 kts 304°
2026-05-06 13:32 49.65191 9.89122 15832 ft 307 kts 304°
2026-05-06 13:32 49.66496 9.86528 15510 ft 304 kts 304°
2026-05-06 13:32 49.67791 9.83952 15199 ft 302 kts 304°
2026-05-06 13:32 49.69077 9.81392 14884 ft 306 kts 304°
2026-05-06 13:33 49.70397 9.78761 14573 ft 310 kts 304°
2026-05-06 13:33 49.71720 9.76119 14253 ft 311 kts 304°
2026-05-06 13:33 49.73043 9.73478 13931 ft 309 kts 304°
2026-05-06 13:33 49.74341 9.70884 13605 ft 308 kts 304°
2026-05-06 13:34 49.75652 9.68260 13244 ft 306 kts 304°
2026-05-06 13:34 49.76949 9.65662 12909 ft 304 kts 304°
2026-05-06 13:34 49.78223 9.63107 12595 ft 301 kts 304°
2026-05-06 13:34 49.79514 9.60517 12276 ft 298 kts 304°
2026-05-06 13:35 49.80763 9.58008 11972 ft 295 kts 304°
2026-05-06 13:35 49.82014 9.55491 11664 ft 293 kts 304°
2026-05-06 13:35 49.83238 9.53029 11371 ft 290 kts 305°
2026-05-06 13:35 49.84464 9.50560 11062 ft 288 kts 305°
2026-05-06 13:36 49.85681 9.48104 10752 ft 286 kts 305°
2026-05-06 13:36 49.86893 9.45657 10463 ft 285 kts 304°
2026-05-06 13:36 49.88102 9.43214 10160 ft 284 kts 304°
2026-05-06 13:36 49.89300 9.40792 9915 ft 280 kts 305°
2026-05-06 13:37 49.90452 9.38461 9777 ft 271 kts 304°
2026-05-06 13:37 49.91589 9.36160 9546 ft 267 kts 304°
2026-05-06 13:37 49.92717 9.33872 9225 ft 265 kts 304°
2026-05-06 13:37 49.93834 9.31605 8931 ft 263 kts 304°
2026-05-06 13:38 49.94942 9.29355 8631 ft 261 kts 304°
2026-05-06 13:38 49.96041 9.27121 8351 ft 259 kts 304°
2026-05-06 13:38 49.97116 9.24935 8070 ft 257 kts 305°
2026-05-06 13:38 49.98200 9.22732 7794 ft 255 kts 306°
2026-05-06 13:39 49.99542 9.20916 7499 ft 262 kts 332°
2026-05-06 13:39 50.01297 9.19996 7306 ft 269 kts 343°
2026-05-06 13:39 50.03104 9.19313 7186 ft 264 kts 344°
2026-05-06 13:39 50.04884 9.18656 7107 ft 262 kts 344°
2026-05-06 13:40 50.06635 9.17999 6998 ft 261 kts 344°
2026-05-06 13:40 50.08412 9.17345 6859 ft 259 kts 343°
2026-05-06 13:40 50.10141 9.16702 6758 ft 250 kts 341°
2026-05-06 13:40 50.11578 9.15460 6606 ft 233 kts 310°
2026-05-06 13:41 50.12405 9.13414 6486 ft 216 kts 289°
2026-05-06 13:41 50.12810 9.11186 6402 ft 217 kts 273°
2026-05-06 13:41 50.12795 9.08802 6358 ft 223 kts 264°
2026-05-06 13:41 50.12708 9.06384 6226 ft 227 kts 264°
2026-05-06 13:42 50.12627 9.03919 5994 ft 228 kts 264°
2026-05-06 13:42 50.12551 9.01441 5715 ft 229 kts 264°
2026-05-06 13:42 50.12478 8.99003 5495 ft 220 kts 265°
2026-05-06 13:42 50.12409 8.96665 5251 ft 211 kts 264°
2026-05-06 13:43 50.12301 8.94443 5069 ft 206 kts 258°
2026-05-06 13:43 50.11974 8.92267 4842 ft 207 kts 250°
2026-05-06 13:43 50.11506 8.90139 4761 ft 202 kts 248°
2026-05-06 13:43 50.10992 8.88094 4337 ft 206 kts 249°
2026-05-06 13:44 50.10557 8.86117 4210 ft 181 kts 249°
2026-05-06 13:44 50.10137 8.84300 3890 ft 179 kts 249°
2026-05-06 13:44 50.09703 8.82477 3619 ft 178 kts 249°
2026-05-06 13:44 50.09276 8.80683 3395 ft 176 kts 249°
2026-05-06 13:45 50.08851 8.78902 3139 ft 173 kts 249°
2026-05-06 13:45 50.08012 8.75391 2663 ft 174 kts 248°
2026-05-06 13:45 50.07587 8.73620 2419 ft 175 kts 249°
2026-05-06 13:46 50.07163 8.71838 2191 ft 174 kts 248°
2026-05-06 13:46 50.06748 8.70106 1953 ft 172 kts 249°
2026-05-06 13:46 50.06329 8.68356 1742 ft 168 kts 250°
2026-05-06 13:46 50.05944 8.66739 1499 ft 149 kts 250°
2026-05-06 13:47 50.05602 8.65301 1349 ft 138 kts 248°
2026-05-06 13:47 50.05231 8.63763 1469 ft 170 kts 248°
2026-05-06 13:47 50.04775 8.61905 1842 ft 195 kts 248°
2026-05-06 13:47 50.04296 8.59872 2250 ft 201 kts 250°
2026-05-06 13:48 50.04003 8.58483 2598 ft 205 kts 252°
2026-05-06 13:48 50.03324 8.55692 3134 ft 203 kts 246°
2026-05-06 13:48 50.02791 8.53690 3514 ft 200 kts 247°
2026-05-06 13:48 50.02462 8.52308 3956 ft 209 kts 249°
2026-05-06 13:49 50.01688 8.49410 4675 ft 224 kts 236°
2026-05-06 13:49 50.00549 8.47826 4712 ft 222 kts 205°
2026-05-06 13:49 49.99534 8.47442 4790 ft 225 kts 183°
2026-05-06 13:49 49.98022 8.47997 4894 ft 233 kts 152°
2026-05-06 13:50 49.96861 8.49771 4973 ft 240 kts 122°
2026-05-06 13:50 49.96426 8.52280 4972 ft 246 kts 90°
2026-05-06 13:50 49.96749 8.54915 5012 ft 250 kts 75°
2026-05-06 13:50 49.97263 8.57470 4995 ft 250 kts 73°
2026-05-06 13:51 49.97791 8.60046 4984 ft 250 kts 74°
2026-05-06 13:51 49.98324 8.62637 4997 ft 251 kts 73°
2026-05-06 13:51 49.98863 8.65240 4991 ft 252 kts 73°
2026-05-06 13:51 49.99397 8.67834 4995 ft 250 kts 73°
2026-05-06 13:52 49.99922 8.70396 4986 ft 251 kts 73°
2026-05-06 13:52 50.00458 8.72990 4993 ft 251 kts 73°
2026-05-06 13:52 50.00985 8.75566 4877 ft 252 kts 73°
2026-05-06 13:52 50.01519 8.78161 4615 ft 252 kts 74°
2026-05-06 13:53 50.02061 8.80764 4350 ft 252 kts 73°
2026-05-06 13:53 50.02596 8.83356 4088 ft 251 kts 73°
2026-05-06 13:53 50.03112 8.85891 3997 ft 247 kts 74°
2026-05-06 13:53 50.03630 8.88454 3991 ft 248 kts 73°
2026-05-06 13:54 50.04154 8.91019 3990 ft 247 kts 73°
2026-05-06 13:54 50.04671 8.93572 3990 ft 246 kts 73°
2026-05-06 13:54 50.05188 8.96120 3979 ft 247 kts 73°
2026-05-06 13:54 50.05926 8.98523 3958 ft 247 kts 50°
2026-05-06 13:55 50.07298 9.00088 3975 ft 249 kts 20°
2026-05-06 13:55 50.08946 9.00438 3936 ft 237 kts 346°
2026-05-06 13:55 50.10401 8.99462 3987 ft 221 kts 318°
2026-05-06 13:55 50.11355 8.97712 3960 ft 208 kts 291°
2026-05-06 13:56 50.11703 8.95589 3985 ft 201 kts 268°
2026-05-06 13:56 50.11505 8.93456 4004 ft 199 kts 255°
2026-05-06 13:56 50.11216 8.91357 3989 ft 201 kts 256°
2026-05-06 13:56 50.10987 8.89197 3988 ft 203 kts 261°
2026-05-06 13:57 50.10716 8.87098 4033 ft 192 kts 253°
2026-05-06 13:57 50.10316 8.85108 3833 ft 192 kts 250°
2026-05-06 13:57 50.09854 8.83108 3599 ft 200 kts 249°
2026-05-06 13:57 50.09372 8.81084 3401 ft 195 kts 250°
2026-05-06 13:58 50.08910 8.79150 3152 ft 191 kts 249°
2026-05-06 13:58 50.08454 8.77236 2904 ft 186 kts 249°
2026-05-06 13:58 50.08005 8.75360 2647 ft 183 kts 249°
2026-05-06 13:58 50.07566 8.73531 2401 ft 176 kts 249°
2026-05-06 13:59 50.07180 8.71766 2128 ft 170 kts 253°
2026-05-06 13:59 50.06889 8.70009 1709 ft 167 kts 255°
2026-05-06 13:59 50.06616 8.68241 1459 ft 165 kts 257°
2026-05-06 13:59 50.06346 8.66580 1263 ft 156 kts 254°
2026-05-06 14:00 50.06012 8.64949 1006 ft 155 kts 250°
2026-05-06 14:00 50.05644 8.63416 919 ft 154 kts 248°
2026-05-06 14:00 50.05282 8.61859 818 ft 151 kts 246°
2026-05-06 14:00 50.04917 8.60363 671 ft 144 kts 248°
2026-05-06 14:01 50.04555 8.58881 470 ft 146 kts 249°
2026-05-06 14:01 50.04222 8.57493 369 ft 121 kts 249°
2026-05-06 14:01 50.04017 8.56624 361 ft 53 kts 250°
2026-05-06 14:01 50.03999 8.56306 357 ft 23 kts 283°
2026-05-06 14:02 50.04033 8.56142 358 ft 12 kts 325°
2026-05-06 14:02 50.04095 8.56151 360 ft 7 kts 51°
2026-05-06 14:02 50.04113 8.56223 359 ft 8 kts 69°
2026-05-06 14:02 50.04137 8.56322 356 ft 13 kts 69°
2026-05-06 14:03 50.04182 8.56506 360 ft 24 kts 69°
2026-05-06 14:03 50.04253 8.56806 364 ft 33 kts 69°
2026-05-06 14:03 50.04335 8.57152 364 ft 35 kts 70°
2026-05-06 14:03 50.04421 8.57510 364 ft 36 kts 69°
2026-05-06 14:04 50.04508 8.57875 369 ft 36 kts 70°
2026-05-06 14:04 50.04661 8.57986 360 ft 29 kts 336°
2026-05-06 14:04 50.04805 8.58063 364 ft 24 kts 72°
2026-05-06 14:04 50.04863 8.58305 364 ft 24 kts 69°
2026-05-06 14:05 50.04922 8.58554 365 ft 27 kts 69°
2026-05-06 14:05 50.04992 8.58843 364 ft 31 kts 69°
2026-05-06 14:05 50.05069 8.58988 363 ft 12 kts 309°
2026-05-06 14:05 50.05091 8.58962 362 ft 1 kts 340°
2026-05-06 14:06 50.05093 8.58961 362 ft 0 kts 340°